| time (UTC) | temp F | wind direction | speed knots | gust knots | rain 1hr in | rain 24hr in | rain mn in | humidity % | barometer mb |
| 20260904235727 | 83 | 116 | 7.8 | 18.2 | 0.00 | 0.07 | 0.03 | 65 | 1012.4 |
| 20260904235228 | 83 | 105 | 9.6 | 20.0 | 0.00 | 0.07 | 0.03 | 64 | 1012.4 |
| 20260904234728 | 83 | 70 | 11.3 | 20.0 | 0.00 | 0.07 | 0.03 | 63 | 1012.5 |
| 20260904234228 | 83 | 112 | 9.6 | 17.4 | 0.00 | 0.07 | 0.03 | 64 | 1012.6 |
| 20260904233959 | 83 | 83 | 10.4 | 20.9 | 0.00 | 0.07 | 0.03 | 63 | 1012.7 |
| 20260904233228 | 83 | 91 | 11.3 | 20.9 | 0.00 | 0.07 | 0.03 | 62 | 1012.7 |
| 20260904232959 | 83 | 89 | 13.0 | 18.2 | 0.00 | 0.07 | 0.03 | 63 | 1013.0 |
| 20260904232228 | 83 | 90 | 7.8 | 22.6 | 0.00 | 0.07 | 0.03 | 64 | 1012.7 |
| 20260904231733 | 83 | 83 | 11.3 | 20.9 | 0.00 | 0.07 | 0.03 | 67 | 1013.0 |
| 20260904231727 | 83 | 99 | 9.6 | 22.6 | 0.00 | 0.07 | 0.03 | 66 | 1013.0 |
| 20260904230727 | 83 | 99 | 7.0 | 20.9 | 0.00 | 0.07 | 0.03 | 70 | 1012.9 |
| 20260904230227 | 83 | 86 | 11.3 | 20.0 | 0.00 | 0.07 | 0.03 | 69 | 1012.9 |
| 20260904225728 | 83 | 52 | 7.8 | 20.0 | 0.00 | 0.07 | 0.03 | 68 | 1012.9 |
| 20260904225234 | 82 | 122 | 10.4 | 21.7 | 0.00 | 0.07 | 0.03 | 69 | 1013.0 |
| 20260904225228 | 83 | 84 | 9.6 | 21.7 | 0.00 | 0.07 | 0.03 | 69 | 1013.0 |
| 20260904224229 | 83 | 132 | 10.4 | 20.0 | 0.00 | 0.07 | 0.03 | 67 | 1013.1 |
| 20260904223727 | 83 | 77 | 7.0 | 20.9 | 0.00 | 0.07 | 0.03 | 68 | 1013.1 |
| 20260904223227 | 83 | 104 | 8.7 | 20.9 | 0.00 | 0.07 | 0.03 | 68 | 1013.2 |
| 20260904222727 | 83 | 61 | 7.0 | 20.0 | 0.00 | 0.07 | 0.03 | 68 | 1013.7 |
| 20260904222229 | 83 | 102 | 11.3 | 21.7 | 0.00 | 0.07 | 0.03 | 69 | 1013.1 |
| 20260904221727 | 82 | 96 | 11.3 | 22.6 | 0.00 | 0.07 | 0.03 | 70 | 1013.5 |
| 20260904221228 | 82 | 102 | 11.3 | 22.6 | 0.00 | 0.07 | 0.03 | 69 | 1013.3 |
| 20260904220728 | 83 | 77 | 8.7 | 20.9 | 0.00 | 0.07 | 0.03 | 68 | 1013.4 |
| 20260904220228 | 83 | 71 | 13.0 | 22.6 | 0.00 | 0.07 | 0.03 | 68 | 1013.5 |
| 20260904215729 | 83 | 79 | 10.4 | 22.6 | 0.00 | 0.07 | 0.03 | 69 | 1013.5 |
| 20260904215228 | 83 | 53 | 7.8 | 20.0 | 0.00 | 0.07 | 0.03 | 71 | 1013.5 |
| 20260904214728 | 83 | 102 | 12.2 | 20.0 | 0.00 | 0.07 | 0.03 | 71 | 1013.5 |
| 20260904214227 | 82 | 83 | 13.9 | 20.0 | 0.00 | 0.07 | 0.03 | 70 | 1013.6 |
| 20260904213727 | 82 | 93 | 13.9 | 25.2 | 0.00 | 0.07 | 0.03 | 71 | 1013.6 |
| 20260904213227 | 82 | 79 | 16.5 | 22.6 | 0.00 | 0.07 | 0.03 | 71 | 1013.2 |
| 20260904212729 | 82 | 75 | 12.2 | 22.6 | 0.00 | 0.07 | 0.03 | 72 | 1013.8 |
| 20260904212228 | 82 | 84 | 12.2 | 22.6 | 0.00 | 0.07 | 0.03 | 72 | 1013.6 |
| 20260904211729 | 82 | 46 | 7.0 | 22.6 | 0.00 | 0.07 | 0.03 | 72 | 1013.6 |
| 20260904211228 | 81 | 120 | 11.3 | 20.9 | 0.00 | 0.07 | 0.03 | 71 | 1013.6 |
| 20260904210727 | 82 | 84 | 12.2 | 20.9 | 0.00 | 0.07 | 0.03 | 71 | 1013.6 |
| 20260904210228 | 82 | 79 | 9.6 | 18.2 | 0.00 | 0.07 | 0.03 | 71 | 1014.0 |
| 20260904205727 | 82 | 72 | 9.6 | 20.0 | 0.00 | 0.07 | 0.03 | 72 | 1014.0 |
| 20260904205227 | 81 | 93 | 9.6 | 22.6 | 0.00 | 0.07 | 0.03 | 70 | 1013.6 |
| 20260904204728 | 81 | 59 | 13.9 | 22.6 | 0.00 | 0.07 | 0.03 | 71 | 1013.7 |
| 20260904204500 | 81 | 65 | 10.4 | 20.9 | 0.00 | 0.07 | 0.03 | 72 | 1013.9 |
| 20260904204336 | 81 | 77 | 10.4 | 18.2 | 0.00 | 0.07 | 0.03 | 73 | 1013.7 |
| 20260904203458 | 81 | 47 | 10.4 | 20.0 | 0.00 | 0.07 | 0.03 | 73 | 1013.7 |
| 20260904202727 | 80 | 84 | 11.3 | 20.0 | 0.00 | 0.07 | 0.03 | 71 | 1013.8 |
| 20260904202229 | 81 | 70 | 12.2 | 20.0 | 0.00 | 0.07 | 0.03 | 73 | 1013.8 |
| 20260904201959 | 81 | 87 | 9.6 | 20.0 | 0.00 | 0.07 | 0.03 | 74 | 1013.5 |
| 20260904201228 | 81 | 84 | 10.4 | 20.0 | 0.00 | 0.07 | 0.03 | 73 | 1013.7 |
| 20260904200730 | 80 | 88 | 7.8 | 20.0 | 0.00 | 0.07 | 0.03 | 73 | 1013.5 |
| 20260904200228 | 80 | 62 | 7.0 | 21.7 | 0.00 | 0.07 | 0.03 | 74 | 1013.5 |
| 20260904200001 | 80 | 69 | 14.8 | 21.7 | 0.00 | 0.07 | 0.03 | 73 | 1013.4 |
| 20260904195228 | 80 | 85 | 7.8 | 20.9 | 0.00 | 0.07 | 0.03 | 74 | 1013.6 |
| 20260904194727 | 80 | 84 | 9.6 | 18.2 | 0.00 | 0.07 | 0.03 | 74 | 1013.5 |
| 20260904194227 | 80 | 109 | 11.3 | 18.2 | 0.00 | 0.07 | 0.03 | 75 | 1013.5 |
| 20260904193727 | 80 | 40 | 7.8 | 24.3 | 0.00 | 0.07 | 0.03 | 74 | 1013.4 |
| 20260904193227 | 80 | 77 | 12.2 | 24.3 | 0.00 | 0.07 | 0.03 | 74 | 1013.5 |
| 20260904192727 | 80 | 78 | 7.8 | 21.7 | 0.00 | 0.07 | 0.03 | 74 | 1013.6 |
| 20260904192228 | 79 | 52 | 11.3 | 21.7 | 0.00 | 0.07 | 0.03 | 74 | 1013.6 |
| 20260904191728 | 79 | 65 | 15.6 | 22.6 | 0.00 | 0.07 | 0.03 | 73 | 1013.5 |
| 20260904191228 | 79 | 81 | 14.8 | 22.6 | 0.00 | 0.07 | 0.03 | 73 | 1013.9 |
| 20260904190727 | 79 | 95 | 7.8 | 24.3 | 0.00 | 0.07 | 0.03 | 72 | 1013.7 |
| 20260904190459 | 79 | 67 | 11.3 | 24.3 | 0.00 | 0.07 | 0.03 | 73 | 1013.5 |
| 20260904185959 | 79 | 92 | 9.6 | 20.0 | 0.00 | 0.07 | 0.03 | 72 | 1013.6 |
| 20260904185227 | 79 | 74 | 11.3 | 20.0 | 0.00 | 0.07 | 0.03 | 74 | 1013.5 |
| 20260904184727 | 78 | 65 | 9.6 | 20.0 | 0.00 | 0.07 | 0.03 | 76 | 1013.6 |
| 20260904184227 | 78 | 103 | 5.2 | 21.7 | 0.00 | 0.07 | 0.03 | 76 | 1013.4 |
| 20260904183727 | 78 | 82 | 9.6 | 21.7 | 0.00 | 0.07 | 0.03 | 75 | 1013.6 |
| 20260904183227 | 78 | 51 | 13.9 | 20.9 | 0.00 | 0.07 | 0.03 | 76 | 1013.4 |
| 20260904182727 | 78 | 69 | 9.6 | 20.9 | 0.00 | 0.07 | 0.03 | 77 | 1013.7 |
| 20260904182228 | 78 | 80 | 9.6 | 17.4 | 0.00 | 0.07 | 0.03 | 76 | 1013.2 |
| 20260904181728 | 78 | 69 | 9.6 | 21.7 | 0.00 | 0.07 | 0.03 | 76 | 1013.4 |
| 20260904181227 | 78 | 94 | 13.9 | 21.7 | 0.00 | 0.07 | 0.03 | 75 | 1013.2 |
| 20260904180727 | 78 | 61 | 9.6 | 20.9 | 0.00 | 0.07 | 0.03 | 77 | 1013.1 |
| 20260904180228 | 78 | 73 | 12.2 | 20.9 | 0.00 | 0.07 | 0.03 | 78 | 1013.1 |
| 20260904180107 | 77 | 68 | 11.3 | 22.6 | 0.00 | 0.07 | 0.03 | 77 | 1013.3 |
| 20260904175959 | 78 | 86 | 12.2 | 22.6 | 0.00 | 0.07 | 0.03 | 79 | 1013.3 |
| 20260904174727 | 77 | 81 | 9.6 | 20.9 | 0.00 | 0.07 | 0.03 | 79 | 1013.2 |
| 20260904174228 | 77 | 103 | 7.0 | 21.7 | 0.00 | 0.07 | 0.03 | 80 | 1013.3 |
| 20260904173728 | 76 | 113 | 7.0 | 21.7 | 0.00 | 0.07 | 0.03 | 80 | 1013.3 |
| 20260904173227 | 76 | 63 | 16.5 | 20.0 | 0.00 | 0.07 | 0.03 | 81 | 1013.0 |
| 20260904172727 | 76 | 113 | 7.8 | 18.2 | 0.00 | 0.07 | 0.03 | 81 | 1013.1 |
| 20260904172459 | 76 | 97 | 4.3 | 17.4 | 0.00 | 0.07 | 0.03 | 80 | 1013.1 |
| 20260904171959 | 76 | 95 | 11.3 | 24.3 | 0.00 | 0.07 | 0.03 | 81 | 1013.0 |
| 20260904171229 | 76 | 58 | 8.7 | 24.3 | 0.00 | 0.07 | 0.03 | 82 | 1012.9 |
| 20260904170728 | 76 | 59 | 8.7 | 18.2 | 0.00 | 0.07 | 0.03 | 83 | 1012.8 |
| 20260904170459 | 76 | 105 | 7.0 | 18.2 | 0.00 | 0.07 | 0.03 | 83 | 1012.8 |
| 20260904165728 | 76 | 109 | 4.3 | 18.2 | 0.00 | 0.07 | 0.03 | 80 | 1012.6 |
| 20260904165228 | 76 | 101 | 7.0 | 18.2 | 0.00 | 0.07 | 0.03 | 79 | 1012.8 |
| 20260904164728 | 76 | 64 | 7.8 | 18.2 | 0.00 | 0.07 | 0.03 | 79 | 1012.6 |
| 20260904164229 | 76 | 93 | 7.8 | 14.8 | 0.01 | 0.07 | 0.03 | 79 | 1012.7 |
| 20260904163733 | 76 | 128 | 9.6 | 16.5 | 0.01 | 0.07 | 0.03 | 79 | 1012.5 |
| 20260904163728 | 76 | 131 | 5.2 | 14.8 | 0.01 | 0.07 | 0.03 | 79 | 1012.5 |
| 20260904162728 | 75 | 106 | 6.1 | 20.0 | 0.01 | 0.07 | 0.03 | 80 | 1012.8 |
| 20260904162500 | 75 | 110 | 7.0 | 20.0 | 0.01 | 0.07 | 0.03 | 83 | 1012.7 |
| 20260904161728 | 74 | 73 | 9.6 | 20.9 | 0.01 | 0.07 | 0.03 | 84 | 1012.6 |
| 20260904161233 | 74 | 96 | 9.6 | 20.9 | 0.01 | 0.08 | 0.03 | 85 | 1012.7 |
| 20260904161229 | 74 | 81 | 9.6 | 14.8 | 0.01 | 0.08 | 0.03 | 86 | 1012.6 |
| 20260904160227 | 74 | 90 | 9.6 | 17.4 | 0.01 | 0.08 | 0.03 | 86 | 1012.6 |
| 20260904155727 | 74 | 115 | 7.8 | 17.4 | 0.01 | 0.08 | 0.03 | 86 | 1012.8 |
| 20260904155228 | 74 | 109 | 7.0 | 21.7 | 0.01 | 0.08 | 0.03 | 86 | 1012.5 |
| 20260904154728 | 76 | 118 | 7.0 | 21.7 | 0.01 | 0.07 | 0.03 | 84 | 1012.8 |
| 20260904154228 | 77 | 91 | 10.4 | 18.2 | 0.00 | 0.07 | 0.02 | 83 | 1012.5 |
| 20260904153728 | 77 | 126 | 3.5 | 14.8 | 0.00 | 0.07 | 0.02 | 81 | 1012.3 |
| 20260904153227 | 77 | 71 | 7.8 | 18.2 | 0.00 | 0.07 | 0.02 | 81 | 1012.3 |
| 20260904152727 | 77 | 116 | 7.8 | 18.2 | 0.00 | 0.07 | 0.02 | 81 | 1012.3 |
| 20260904152228 | 76 | 94 | 7.0 | 14.8 | 0.00 | 0.07 | 0.02 | 82 | 1012.5 |
| 20260904151728 | 76 | 98 | 3.5 | 16.5 | 0.00 | 0.07 | 0.02 | 82 | 1012.7 |
| 20260904151228 | 76 | 79 | 4.3 | 16.5 | 0.00 | 0.07 | 0.02 | 83 | 1012.6 |
| 20260904150727 | 75 | 136 | 4.3 | 14.8 | 0.00 | 0.07 | 0.02 | 84 | 1012.6 |
| 20260904150227 | 75 | 110 | 6.1 | 13.9 | 0.00 | 0.07 | 0.02 | 87 | 1012.6 |
| 20260904145959 | 75 | 48 | 6.1 | 9.6 | 0.00 | 0.07 | 0.02 | 87 | 1012.5 |
| 20260904145458 | 75 | 117 | 6.1 | 9.6 | 0.00 | 0.07 | 0.02 | 87 | 1012.6 |
| 20260904144728 | 75 | 100 | 3.5 | 8.7 | 0.00 | 0.07 | 0.02 | 87 | 1012.6 |
| 20260904144459 | 74 | 106 | 3.5 | 11.3 | 0.00 | 0.07 | 0.02 | 86 | 1012.5 |
| 20260904143727 | 74 | 108 | 4.3 | 13.9 | 0.00 | 0.07 | 0.02 | 86 | 1012.7 |
| 20260904143228 | 74 | 69 | 6.1 | 20.9 | 0.00 | 0.07 | 0.02 | 85 | 1012.6 |
| 20260904142729 | 74 | 114 | 9.6 | 20.9 | 0.00 | 0.07 | 0.02 | 85 | 1012.6 |
| 20260904142227 | 75 | 135 | 7.0 | 20.9 | 0.00 | 0.07 | 0.02 | 85 | 1012.7 |
| 20260904141727 | 76 | 122 | 9.6 | 17.4 | 0.00 | 0.07 | 0.02 | 84 | 1012.3 |
| 20260904141500 | 76 | 104 | 4.3 | 17.4 | 0.00 | 0.07 | 0.02 | 82 | 1012.4 |
| 20260904140728 | 76 | 98 | 5.2 | 14.8 | 0.00 | 0.07 | 0.02 | 82 | 1012.5 |
| 20260904140227 | 75 | 97 | 7.0 | 16.5 | 0.00 | 0.07 | 0.02 | 83 | 1012.5 |
| 20260904135727 | 76 | 93 | 11.3 | 17.4 | 0.00 | 0.07 | 0.02 | 85 | 1012.2 |
| 20260904135229 | 75 | 103 | 4.3 | 18.2 | 0.00 | 0.07 | 0.02 | 85 | 1012.4 |
| 20260904134727 | 75 | 128 | 12.2 | 18.2 | 0.00 | 0.07 | 0.02 | 85 | 1012.4 |
| 20260904134228 | 74 | 73 | 6.1 | 11.3 | 0.00 | 0.07 | 0.02 | 87 | 1012.6 |
| 20260904133727 | 74 | 112 | 4.3 | 12.2 | 0.00 | 0.07 | 0.02 | 87 | 1012.6 |
| 20260904133228 | 74 | 88 | 6.1 | 13.0 | 0.00 | 0.07 | 0.02 | 88 | 1012.6 |
| 20260904133001 | 74 | 48 | 7.8 | 13.9 | 0.00 | 0.07 | 0.02 | 88 | 1012.6 |
| 20260904132228 | 74 | 97 | 9.6 | 14.8 | 0.00 | 0.07 | 0.02 | 88 | 1012.4 |
| 20260904131727 | 74 | 78 | 7.8 | 22.6 | 0.00 | 0.07 | 0.02 | 89 | 1012.5 |
| 20260904131228 | 74 | 93 | 5.2 | 22.6 | 0.00 | 0.07 | 0.02 | 89 | 1012.6 |
| 20260904130728 | 74 | 71 | 12.2 | 20.9 | 0.01 | 0.07 | 0.02 | 89 | 1012.5 |
| 20260904130459 | 73 | 81 | 7.0 | 18.2 | 0.02 | 0.07 | 0.02 | 90 | 1012.9 |
| 20260904125728 | 73 | 75 | 8.7 | 21.7 | 0.02 | 0.07 | 0.02 | 89 | 1012.7 |
| 20260904125227 | 73 | 57 | 10.4 | 26.9 | 0.02 | 0.07 | 0.02 | 89 | 1012.9 |
| 20260904124727 | 73 | 96 | 5.2 | 26.9 | 0.02 | 0.07 | 0.02 | 88 | 1012.8 |
| 20260904124500 | 73 | 106 | 13.0 | 20.9 | 0.02 | 0.07 | 0.02 | 89 | 1013.0 |
| 20260904123728 | 73 | 99 | 9.6 | 14.8 | 0.02 | 0.07 | 0.02 | 89 | 1013.1 |
| 20260904123227 | 73 | 130 | 7.0 | 12.2 | 0.02 | 0.07 | 0.02 | 90 | 1012.9 |
| 20260904122959 | 73 | 75 | 4.3 | 12.2 | 0.02 | 0.07 | 0.02 | 90 | 1013.2 |
| 20260904122228 | 73 | 115 | 7.0 | 14.8 | 0.02 | 0.07 | 0.02 | 90 | 1013.0 |
| 20260904121728 | 73 | 105 | 7.8 | 22.6 | 0.02 | 0.07 | 0.02 | 89 | 1013.2 |
| 20260904121228 | 74 | 121 | 5.2 | 24.3 | 0.02 | 0.07 | 0.02 | 89 | 1013.5 |
| 20260904120729 | 74 | 130 | 7.8 | 24.3 | 0.00 | 0.06 | 0.01 | 87 | 1013.5 |
| 20260904120229 | 76 | 95 | 11.3 | 17.4 | 0.00 | 0.06 | 0.00 | 85 | 1013.3 |
| 20260904115728 | 76 | 80 | 11.3 | 17.4 | 0.00 | 0.06 | 0.00 | 82 | 1013.2 |
| 20260904115228 | 77 | 156 | 5.2 | 18.2 | 0.00 | 0.06 | 0.00 | 80 | 1013.0 |
| 20260904114728 | 77 | 110 | 7.8 | 18.2 | 0.00 | 0.06 | 0.00 | 80 | 1013.2 |
| 20260904114227 | 77 | 68 | 10.4 | 16.5 | 0.00 | 0.06 | 0.00 | 79 | 1013.2 |
| 20260904113727 | 77 | 76 | 7.0 | 16.5 | 0.00 | 0.06 | 0.00 | 80 | 1013.3 |
| 20260904113227 | 76 | 132 | 7.8 | 16.5 | 0.00 | 0.06 | 0.00 | 81 | 1013.1 |
| 20260904112727 | 76 | 66 | 11.3 | 16.5 | 0.00 | 0.06 | 0.00 | 81 | 1013.2 |
| 20260904112228 | 76 | 121 | 7.8 | 14.8 | 0.00 | 0.06 | 0.00 | 81 | 1013.2 |
| 20260904111728 | 76 | 45 | 10.4 | 13.9 | 0.00 | 0.06 | 0.00 | 81 | 1013.3 |
| 20260904111228 | 76 | 96 | 7.8 | 13.9 | 0.00 | 0.06 | 0.00 | 81 | 1013.4 |
| 20260904110715 | 76 | 128 | 7.8 | 17.4 | 0.00 | 0.06 | 0.00 | 82 | 1013.4 |
| 20260904110215 | 75 | 119 | 5.2 | 21.7 | 0.00 | 0.06 | 0.00 | 82 | 1013.4 |
| 20260904105715 | 76 | 156 | 8.7 | 21.7 | 0.00 | 0.06 | 0.00 | 82 | 1013.4 |
| 20260904105216 | 76 | 85 | 10.4 | 22.6 | 0.00 | 0.06 | 0.00 | 83 | 1013.6 |
| 20260904104715 | 77 | 87 | 8.7 | 22.6 | 0.00 | 0.06 | 0.00 | 83 | 1013.6 |
| 20260904104216 | 77 | 90 | 7.0 | 20.0 | 0.00 | 0.06 | 0.00 | 79 | 1013.6 |
| 20260904103715 | 77 | 58 | 7.8 | 20.0 | 0.00 | 0.06 | 0.00 | 80 | 1013.5 |
| 20260904103203 | 77 | 74 | 9.6 | 20.9 | 0.00 | 0.06 | 0.00 | 78 | 1013.8 |
| 20260904102703 | 77 | 156 | 5.2 | 20.9 | 0.00 | 0.06 | 0.00 | 78 | 1013.7 |
| 20260904102203 | 77 | 91 | 4.3 | 17.4 | 0.00 | 0.06 | 0.00 | 77 | 1013.9 |
| 20260904101934 | 77 | 88 | 7.8 | 16.5 | 0.00 | 0.06 | 0.00 | 78 | 1014.0 |
| 20260904101435 | 77 | 86 | 9.6 | 16.5 | 0.00 | 0.06 | 0.00 | 78 | 1013.7 |
| 20260904100703 | 77 | 99 | 11.3 | 16.5 | 0.00 | 0.06 | 0.00 | 78 | 1013.7 |
| 20260904100203 | 77 | 109 | 7.0 | 16.5 | 0.00 | 0.06 | 0.00 | 79 | 1014.1 |
| 20260904095703 | 77 | 119 | 7.0 | 20.0 | 0.00 | 0.06 | 0.06 | 79 | 1013.9 |
| 20260904095151 | 77 | 90 | 6.1 | 20.0 | 0.00 | 0.06 | 0.06 | 78 | 1014.1 |
| 20260904094652 | 77 | 101 | 7.8 | 16.5 | 0.00 | 0.06 | 0.06 | 78 | 1014.2 |
| 20260904094153 | 77 | 104 | 9.6 | 20.0 | 0.00 | 0.06 | 0.06 | 79 | 1014.1 |
| 20260904093658 | 77 | 79 | 7.0 | 14.8 | 0.00 | 0.06 | 0.06 | 79 | 1014.2 |
| 20260904093652 | 77 | 69 | 8.7 | 20.0 | 0.00 | 0.06 | 0.06 | 79 | 1014.1 |
| 20260904092924 | 77 | 70 | 9.6 | 20.0 | 0.00 | 0.06 | 0.06 | 78 | 1014.3 |
| 20260904092152 | 77 | 89 | 11.3 | 20.0 | 0.00 | 0.06 | 0.06 | 79 | 1014.2 |
| 20260904091639 | 77 | 87 | 7.0 | 17.4 | 0.00 | 0.06 | 0.06 | 81 | 1014.2 |
| 20260904091139 | 77 | 89 | 11.3 | 16.5 | 0.00 | 0.06 | 0.06 | 80 | 1014.4 |
| 20260904090641 | 77 | 119 | 5.2 | 16.5 | 0.00 | 0.06 | 0.06 | 80 | 1014.3 |
| 20260904090140 | 77 | 91 | 6.1 | 18.2 | 0.00 | 0.06 | 0.06 | 80 | 1014.4 |
| 20260904085641 | 77 | 80 | 12.2 | 20.9 | 0.00 | 0.06 | 0.06 | 79 | 1014.5 |
| 20260904085140 | 77 | 132 | 7.0 | 20.9 | 0.00 | 0.06 | 0.06 | 79 | 1014.2 |
| 20260904084911 | 77 | 85 | 7.8 | 18.2 | 0.01 | 0.06 | 0.06 | 79 | 1014.5 |
| 20260904084127 | 77 | 94 | 9.6 | 20.9 | 0.04 | 0.06 | 0.06 | 80 | 1014.5 |
| 20260904083627 | 77 | 72 | 7.8 | 18.2 | 0.04 | 0.06 | 0.06 | 79 | 1014.4 |
| 20260904083127 | 77 | 74 | 8.7 | 18.2 | 0.04 | 0.06 | 0.06 | 80 | 1014.7 |
| 20260904082629 | 77 | 76 | 7.0 | 17.4 | 0.04 | 0.06 | 0.06 | 79 | 1014.8 |
| 20260904082128 | 76 | 101 | 11.3 | 17.4 | 0.04 | 0.06 | 0.06 | 80 | 1014.6 |
| 20260904081627 | 76 | 99 | 4.3 | 16.5 | 0.04 | 0.06 | 0.06 | 82 | 1014.9 |
| 20260904081129 | 76 | 79 | 11.3 | 16.5 | 0.04 | 0.06 | 0.06 | 82 | 1015.1 |
| 20260904080629 | 76 | 92 | 5.2 | 17.4 | 0.04 | 0.05 | 0.05 | 84 | 1014.8 |
| 20260904080358 | 76 | 116 | 6.1 | 17.4 | 0.04 | 0.05 | 0.05 | 85 | 1014.9 |
| 20260904075628 | 76 | 88 | 3.5 | 16.5 | 0.04 | 0.05 | 0.05 | 85 | 1015.0 |
| 20260904075128 | 76 | 89 | 4.3 | 20.0 | 0.04 | 0.05 | 0.05 | 84 | 1015.0 |
| 20260904074627 | 77 | 95 | 10.4 | 20.0 | 0.04 | 0.05 | 0.05 | 83 | 1015.1 |
| 20260904074127 | 78 | 47 | 8.7 | 16.5 | 0.00 | 0.01 | 0.01 | 80 | 1014.9 |
| 20260904073628 | 78 | 105 | 7.0 | 16.5 | 0.00 | 0.01 | 0.01 | 79 | 1014.9 |
| 20260904073128 | 78 | 100 | 5.2 | 16.5 | 0.00 | 0.01 | 0.01 | 78 | 1014.7 |
| 20260904072627 | 78 | 73 | 5.2 | 16.5 | 0.00 | 0.01 | 0.01 | 77 | 1014.8 |
| 20260904072129 | 78 | 79 | 5.2 | 13.9 | 0.00 | 0.01 | 0.01 | 79 | 1014.9 |
| 20260904071627 | 78 | 90 | 8.7 | 13.9 | 0.00 | 0.01 | 0.01 | 79 | 1014.7 |
| 20260904071128 | 78 | 186 | 4.3 | 18.2 | 0.00 | 0.01 | 0.01 | 80 | 1014.4 |
| 20260904070628 | 78 | 39 | 7.8 | 18.2 | 0.00 | 0.01 | 0.01 | 79 | 1014.4 |
| 20260904070127 | 78 | 96 | 10.4 | 16.5 | 0.00 | 0.01 | 0.01 | 77 | 1014.4 |
| 20260904065629 | 78 | 121 | 6.1 | 16.5 | 0.00 | 0.01 | 0.01 | 76 | 1014.3 |
| 20260904065128 | 78 | 46 | 5.2 | 14.8 | 0.00 | 0.01 | 0.01 | 76 | 1014.2 |
| 20260904064627 | 78 | 96 | 7.0 | 18.2 | 0.00 | 0.01 | 0.01 | 76 | 1014.2 |
| 20260904064130 | 78 | 112 | 10.4 | 17.4 | 0.00 | 0.01 | 0.01 | 76 | 1014.1 |
| 20260904063628 | 78 | 87 | 8.7 | 16.5 | 0.00 | 0.01 | 0.01 | 76 | 1014.2 |
| 20260904063128 | 78 | 92 | 9.6 | 16.5 | 0.00 | 0.01 | 0.01 | 76 | 1014.1 |
| 20260904062859 | 78 | 111 | 8.7 | 17.4 | 0.00 | 0.01 | 0.01 | 75 | 1014.2 |
| 20260904062359 | 78 | 101 | 8.7 | 17.4 | 0.00 | 0.01 | 0.01 | 76 | 1014.3 |
| 20260904061900 | 79 | 126 | 7.8 | 16.5 | 0.00 | 0.01 | 0.01 | 77 | 1014.1 |
| 20260904061736 | 78 | 103 | 7.8 | 16.5 | 0.00 | 0.01 | 0.01 | 76 | 1014.4 |
| 20260904060627 | 78 | 90 | 7.8 | 18.2 | 0.00 | 0.01 | 0.01 | 76 | 1014.4 |
| 20260904060127 | 78 | 70 | 9.6 | 18.2 | 0.00 | 0.01 | 0.01 | 76 | 1014.1 |
| 20260904055858 | 79 | 100 | 6.1 | 14.8 | 0.00 | 0.01 | 0.01 | 77 | 1014.0 |
| 20260904055116 | 79 | 120 | 8.7 | 18.2 | 0.00 | 0.01 | 0.01 | 77 | 1014.0 |
| 20260904054846 | 78 | 63 | 7.8 | 18.2 | 0.00 | 0.01 | 0.01 | 77 | 1014.1 |
| 20260904054115 | 79 | 41 | 5.2 | 17.4 | 0.00 | 0.01 | 0.01 | 77 | 1013.8 |
| 20260904053616 | 79 | 123 | 7.8 | 17.4 | 0.00 | 0.01 | 0.01 | 78 | 1013.8 |
| 20260904053117 | 79 | 107 | 7.8 | 18.2 | 0.00 | 0.01 | 0.01 | 77 | 1013.7 |
| 20260904052615 | 79 | 96 | 5.2 | 18.2 | 0.00 | 0.01 | 0.01 | 77 | 1013.9 |
| 20260904052116 | 79 | 75 | 8.7 | 17.4 | 0.00 | 0.01 | 0.01 | 77 | 1013.7 |
| 20260904051615 | 79 | 84 | 7.8 | 17.4 | 0.00 | 0.01 | 0.01 | 75 | 1013.6 |
| 20260904051347 | 79 | 58 | 8.7 | 18.2 | 0.00 | 0.01 | 0.01 | 75 | 1013.4 |
| 20260904050616 | 79 | 128 | 7.8 | 18.2 | 0.00 | 0.01 | 0.01 | 76 | 1013.4 |
| 20260904050116 | 79 | 126 | 12.2 | 16.5 | 0.00 | 0.01 | 0.01 | 75 | 1013.7 |
| 20260904045846 | 79 | 84 | 7.8 | 18.2 | 0.00 | 0.01 | 0.01 | 77 | 1013.5 |
| 20260904045336 | 79 | 99 | 4.3 | 18.2 | 0.00 | 0.01 | 0.01 | 76 | 1013.4 |
| 20260904044834 | 79 | 49 | 9.6 | 16.5 | 0.00 | 0.01 | 0.01 | 76 | 1013.4 |
| 20260904044104 | 79 | 99 | 7.0 | 16.5 | 0.00 | 0.01 | 0.01 | 76 | 1013.2 |
| 20260904043835 | 79 | 71 | 8.7 | 18.2 | 0.00 | 0.01 | 0.01 | 76 | 1013.5 |
| 20260904043105 | 78 | 105 | 7.0 | 18.2 | 0.00 | 0.01 | 0.01 | 77 | 1013.3 |
| 20260904042604 | 78 | 72 | 8.7 | 17.4 | 0.00 | 0.01 | 0.01 | 79 | 1013.2 |
| 20260904042104 | 78 | 58 | 7.0 | 16.5 | 0.00 | 0.01 | 0.01 | 80 | 1013.1 |
| 20260904041557 | 79 | 68 | 6.1 | 18.2 | 0.00 | 0.01 | 0.01 | 78 | 1013.0 |
| 20260904041552 | 79 | 111 | 11.3 | 16.5 | 0.00 | 0.01 | 0.01 | 79 | 1013.2 |
| 20260904040552 | 79 | 26 | 9.6 | 18.2 | 0.00 | 0.01 | 0.01 | 78 | 1013.1 |
| 20260904040052 | 79 | 54 | 11.3 | 18.2 | 0.00 | 0.01 | 0.01 | 78 | 1013.1 |
| 20260904035551 | 79 | 54 | 7.8 | 16.5 | 0.00 | 0.01 | 0.01 | 78 | 1012.9 |
| 20260904035051 | 79 | 102 | 11.3 | 20.9 | 0.00 | 0.01 | 0.01 | 77 | 1012.8 |
| 20260904034552 | 79 | 116 | 13.9 | 20.9 | 0.00 | 0.01 | 0.01 | 76 | 1012.9 |
| 20260904034040 | 79 | 95 | 9.6 | 17.4 | 0.00 | 0.01 | 0.01 | 75 | 1012.8 |
| 20260904033540 | 79 | 119 | 4.3 | 20.0 | 0.00 | 0.01 | 0.01 | 76 | 1012.6 |
| 20260904033040 | 78 | 119 | 13.9 | 20.0 | 0.00 | 0.01 | 0.01 | 77 | 1012.6 |
| 20260904032541 | 78 | 100 | 7.8 | 20.9 | 0.00 | 0.01 | 0.01 | 79 | 1012.7 |
| 20260904032039 | 79 | 39 | 8.7 | 20.9 | 0.00 | 0.01 | 0.01 | 80 | 1013.0 |
| 20260904031540 | 79 | 103 | 11.3 | 17.4 | 0.00 | 0.01 | 0.01 | 79 | 1012.9 |
| 20260904031041 | 78 | 102 | 10.4 | 20.9 | 0.00 | 0.01 | 0.01 | 79 | 1013.1 |
| 20260904030758 | 78 | 92 | 8.7 | 20.9 | 0.00 | 0.01 | 0.01 | 79 | 1012.8 |
| 20260904030027 | 78 | 76 | 10.4 | 17.4 | 0.00 | 0.01 | 0.01 | 80 | 1012.9 |
| 20260904025528 | 78 | 97 | 7.0 | 20.0 | 0.00 | 0.01 | 0.01 | 80 | 1012.9 |
| 20260904025028 | 78 | 81 | 11.3 | 20.0 | 0.00 | 0.01 | 0.01 | 79 | 1013.0 |
| 20260904024528 | 78 | 79 | 7.8 | 20.9 | 0.00 | 0.01 | 0.01 | 80 | 1013.2 |
| 20260904024259 | 78 | 115 | 8.7 | 20.9 | 0.00 | 0.01 | 0.01 | 80 | 1012.6 |
| 20260904023527 | 78 | 108 | 7.8 | 20.0 | 0.00 | 0.01 | 0.01 | 82 | 1012.9 |
| 20260904023027 | 77 | 98 | 3.5 | 14.8 | 0.00 | 0.01 | 0.01 | 85 | 1013.0 |
| 20260904022528 | 77 | 125 | 5.2 | 9.6 | 0.00 | 0.01 | 0.01 | 87 | 1013.2 |
| 20260904022028 | 76 | 136 | 5.2 | 9.6 | 0.00 | 0.01 | 0.01 | 88 | 1013.3 |
| 20260904021528 | 76 | 103 | 3.5 | 16.5 | 0.00 | 0.01 | 0.01 | 88 | 1013.5 |
| 20260904021028 | 76 | 164 | 5.2 | 16.5 | 0.00 | 0.01 | 0.01 | 88 | 1013.4 |
| 20260904020759 | 76 | 102 | 5.2 | 13.9 | 0.00 | 0.01 | 0.01 | 88 | 1013.5 |
| 20260904020027 | 76 | 128 | 8.7 | 17.4 | 0.00 | 0.01 | 0.01 | 88 | 1013.5 |
| 20260904015541 | 77 | 83 | 8.7 | 18.2 | 0.00 | 0.01 | 0.01 | 86 | 1013.7 |
| 20260904015535 | 76 | 118 | 7.0 | 17.4 | 0.00 | 0.01 | 0.01 | 87 | 1013.7 |
| 20260904015529 | 76 | 93 | 5.2 | 17.4 | 0.00 | 0.01 | 0.01 | 87 | 1013.8 |